This is the latest recevied weather packets stored in our database for station/object DG7YEO-13. If no packets are shown the sender has not sent any weather packets the latest 10 day(s).
| Time | Temp. | Humidity | Pressure | Rain* | Wind** | Luminosity | Snow |
|---|---|---|---|---|---|---|---|
| 1777777326 | 15° C | 95% | 1011.8 hPa | 0 mm | - | - | - |
| 1777776425 | 15° C | 95% | 1011.8 hPa | 0 mm | - | - | - |
| 1777775525 | 15° C | 95% | 1011.8 hPa | 0 mm | - | - | - |
| 1777774625 | 15° C | 94% | 1011.8 hPa | 0 mm | - | - | - |
| 1777773725 | 15° C | 95% | 1011.8 hPa | 0 mm | - | - | - |
| 1777772825 | 15° C | 94% | 1012 hPa | 0 mm | - | - | - |
| 1777771925 | 15° C | 94% | 1012.1 hPa | 0 mm | - | - | - |
| 1777771024 | 15° C | 94% | 1012.5 hPa | 0 mm | - | - | - |
| 1777770126 | 15° C | 94% | 1013 hPa | 0 mm | - | - | - |
| 1777769225 | 15.56° C | 94% | 1013.1 hPa | 0 mm | - | - | - |
| 1777768325 | 15.56° C | 94% | 1013.2 hPa | 0 mm | - | - | - |
| 1777767425 | 15.56° C | 94% | 1013.3 hPa | 0 mm | - | - | - |
| 1777766525 | 15.56° C | 93% | 1013.3 hPa | 0 mm | - | - | - |
| 1777765625 | 15.56° C | 93% | 1013 hPa | 0 mm | - | - | - |
| 1777764725 | 16.11° C | 93% | 1013.1 hPa | 0 mm | - | - | - |
| 1777763825 | 16.11° C | 93% | 1013.1 hPa | 0 mm | - | - | - |
| 1777762946 | 16.11° C | 93% | 1013.2 hPa | 0 mm | - | - | - |
| 1777762025 | 16.11° C | 92% | 1013.3 hPa | 0 mm | - | - | - |
| 1777761125 | 16.11° C | 92% | 1013.3 hPa | 0 mm | - | - | - |
| 1777760225 | 16.11° C | 92% | 1013.4 hPa | 0.51 mm | - | - | - |
| 1777759325 | 16.67° C | 92% | 1013.4 hPa | 0.76 mm | - | - | - |
| 1777758425 | 16.67° C | 92% | 1013.7 hPa | 2.29 mm | - | - | - |
| 1777757525 | 16.67° C | 91% | 1014.2 hPa | 3.81 mm | - | - | - |
| 1777756625 | 16.67° C | 90% | 1014.8 hPa | 3.81 mm | - | - | - |
| 1777755725 | 16.67° C | 89% | 1014.7 hPa | 3.56 mm | - | - | - |
* Rain latest hour (hover to see other rain measurements)
** Current wind speed in m/s (hover to see current wind gust speed)